This is the latest recevied weather packets stored in our database for station/object KD8FRE. If no packets are shown the sender has not sent any weather packets the latest 10 day(s).
| Time | Temp. | Humidity | Pressure | Rain* | Wind** | Luminosity | Snow |
|---|---|---|---|---|---|---|---|
| 1777728297 | 3.89° C | 61% | 1018.3 hPa | 0 mm | - | 303 W/m² | - |
| 1777727995 | 3.89° C | 61% | 1018.6 hPa | 0 mm | - | 326 W/m² | - |
| 1777727691 | 3.89° C | 62% | 1018.5 hPa | 0 mm | - | 246 W/m² | - |
| 1777727388 | 3.89° C | 64% | 1018.4 hPa | 0 mm | - | 212 W/m² | - |
| 1777727086 | 3.89° C | 64% | 1018.6 hPa | 0 mm | - | 233 W/m² | - |
| 1777726783 | 3.89° C | 63% | 1018.5 hPa | 0 mm | - | 192 W/m² | - |
| 1777726480 | 3.89° C | 65% | 1018.4 hPa | 0 mm | - | 217 W/m² | - |
| 1777726177 | 3.33° C | 67% | 1018.5 hPa | 0 mm | - | 148 W/m² | - |
| 1777725873 | 3.33° C | 66% | 1018.3 hPa | 0 mm | - | 133 W/m² | - |
| 1777725571 | 3.33° C | 68% | 1018.3 hPa | 0 mm | - | 132 W/m² | - |
| 1777725268 | 2.78° C | 68% | 1018.3 hPa | 0 mm | - | 63 W/m² | - |
| 1777724965 | 2.78° C | 70% | 1018.4 hPa | 0 mm | - | 71 W/m² | - |
| 1777724360 | 2.78° C | 69% | 1018.3 hPa | 0 mm | - | 66 W/m² | - |
| 1777724056 | 2.78° C | 71% | 1018.3 hPa | 0 mm | - | 88 W/m² | - |
| 1777723754 | 2.78° C | 71% | 1018.2 hPa | 0 mm | - | 103 W/m² | - |
| 1777723450 | 2.78° C | 71% | 1018.3 hPa | 0 mm | - | 108 W/m² | - |
| 1777723147 | 2.22° C | 72% | 1018.1 hPa | 0 mm | - | 44 W/m² | - |
| 1777722540 | 2.22° C | 72% | 1018.4 hPa | 0 mm | - | 68 W/m² | - |
| 1777722238 | 2.22° C | 72% | 1018.2 hPa | 0 mm | - | 43 W/m² | - |
| 1777721935 | 2.22° C | 72% | 1018.1 hPa | 0 mm | - | 59 W/m² | - |
| 1777721632 | 1.67° C | 73% | 1018.1 hPa | 0 mm | - | 50 W/m² | - |
| 1777721330 | 1.67° C | 74% | 1018.1 hPa | 0 mm | - | 41 W/m² | - |
| 1777721027 | 1.67° C | 74% | 1018.1 hPa | 0 mm | - | 26 W/m² | - |
| 1777720725 | 1.67° C | 74% | 1018 hPa | 0 mm | - | 22 W/m² | - |
| 1777720422 | 1.67° C | 76% | 1017.8 hPa | 0 mm | - | 21 W/m² | - |
* Rain latest hour (hover to see other rain measurements)
** Current wind speed in m/s (hover to see current wind gust speed)